Location: Fontevrault
(47.1823°N, 0.0493°E)
Time: 07:33:44
(UTC+00:00)

Cosmos 2263 Rocket - Pass Details

Date: 01 November 2021
Orbit: 825 x 847 km, 71.0° (Epoch: 01 December)

Event Time Altitude Azimuth Distance (km) Brightness Sun altitude
Rises 05:43:32 0° 176° (S) 3,369 5.5 -10.6°
Reaches altitude 10° 05:46:11 10° 167° (SSE) 2,436 4.9 -10.1°
Maximum altitude 05:51:05 32° 105° (ESE) 1,382 4.2 -9.3°
Drops below altitude 10° 05:55:59 10° 44° (NE) 2,440 5.1 -8.5°
Sets 05:58:38 0° 35° (NE) 3,376 5.6 -8.1°
